User: anonymous   Login
Location: Mentone
(34.5413°N, 85.5351°W)
Time: 05:41:08
(UTC-05:00)
Language:

ADEOS Rocket - Orbit

View from above orbital plane
View from above orbital plane
View from above satellite
View from above satellite

Ground track
Ground track

The orbit data is extracted from the following two-line orbital elements,

1 24279U 96046C   14301.71356250  .00000074  00000-0  13972-3 0  7496
2 24279 098.7313 352.6382 0299811 224.3489 287.2813 13.46997826894667
Epoch (UTC): 28 October 2014 17:07:31
Eccentricity: 0.0299811
inclination: 98.7313°
perigee height: 859 km
apogee height: 1307 km
right ascension of ascending node: 352.6382°
argument of perigee: 224.3489°
revolutions per day: 13.46997826
mean anomaly at epoch: 287.2813°
orbit number at epoch: 89466

The dashed part of the orbit path shows where the satellite is in the earth's shadow,  

DLR